Wind_Speed
38 37 36 35 33 31 29 26 23 21 21 19 18 18 18 17 14 12 12 12 12 13 13 13 12 12 11 11 10 9 8 8 8 9 12 13 14 15 15 15 15 15 14 14 13 14 15 16 16 14 13 13 13 13 13 11 9 8 7 8 8 7 10 12 11 11 19 22 22 26 28 28 30 31 33 36 37 35 34 34 34 34 36 38 38
38 37 37 36 34 32 30 27 24 23 22 20 19 19 18 16 14 13 13 13 13 15 15 14 13 14 14 13 12 12 12 12 12 12 13 15 15 15 15 15 16 16 16 15 15 15 15 16 16 15 15 15 15 14 15 14 13 12 11 10 11 11 11 15 15 12 16 23 24 27 28 27 29 32 33 34 37 37 35 36 35 34 34 36 38
39 38 38 37 35 33 31 28 25 24 23 22 20 19 18 16 14 13 13 13 15 17 18 17 16 16 17 16 16 15 15 16 16 16 16 17 18 18 17 16 16 16 16 17 16 16 16 16 17 17 16 17 17 17 17 18 16 15 15 14 14 15 14 16 18 15 16 22 24 26 28 28 29 33 34 34 35 35 34 35 35 35 34 35 37
39 38 38 37 35 34 32 29 28 27 25 23 21 20 19 16 14 14 13 13 15 18 18 18 17 17 17 17 17 16 16 17 17 18 17 18 19 19 19 18 17 16 17 17 17 16 16 17 17 18 18 19 20 19 19 20 20 19 18 17 17 18 18 18 20 20 19 20 24 27 29 29 30 33 34 34 33 32 32 33 34 35 34 34 36
37 37 37 36 35 35 33 30 30 28 26 23 20 20 18 15 14 14 14 14 17 19 19 18 17 16 15 15 15 14 13 13 13 14 15 16 17 18 19 19 18 17 17 16 16 16 16 17 18 18 19 21 22 22 22 22 22 22 21 21 20 20 20 20 21 23 22 21 24 27 29 29 30 32 32 32 32 32 32 32 33 34 33 33 34
37 38 37 35 34 35 33 32 30 27 24 20 18 18 17 15 15 15 15 15 16 18 18 17 16 14 13 13 13 11 10 10 11 12 14 15 16 18 19 20 19 18 17 16 15 16 16 17 18 18 19 21 22 23 24 24 24 25 25 25 24 22 21 22 22 23 23 23 25 27 27 28 29 30 32 31 30 31 32 33 34 32 30 30 32
37 39 39 38 36 35 32 31 29 26 23 19 18 20 19 17 18 18 16 14 14 16 16 15 14 13 12 11 11 10 10 12 13 13 14 15 17 18 19 20 20 19 18 16 15 15 15 16 16 17 18 20 22 23 25 26 26 27 28 28 26 23 21 23 23 22 22 23 24 25 26 27 28 29 32 32 30 29 28 28 30 31 31 30 30
38 39 40 39 35 30 28 29 28 25 23 21 21 22 21 20 22 21 16 14 14 15 14 13 12 12 11 11 11 12 14 15 15 14 14 15 16 17 18 19 21 20 18 17 15 15 15 15 16 16 17 18 19 21 24 26 26 27 28 28 27 24 22 23 23 21 21 22 23 25 25 25 27 29 30 30 27 26 26 25 26 30 33 32 31
36 36 35 31 24 23 24 27 28 25 22 23 24 23 21 22 23 21 17 15 15 14 12 11 10 9 10 12 13 15 16 16 16 15 15 16 17 18 19 19 20 20 19 17 17 16 16 17 17 16 16 16 17 18 20 22 24 26 27 27 26 25 23 22 21 21 20 20 22 24 22 22 25 27 27 27 26 28 31 30 27 29 31 32 34
32 30 29 26 23 25 28 29 29 25 23 25 25 23 22 24 24 21 19 17 16 14 14 13 11 10 11 12 14 15 16 17 17 16 16 17 18 19 19 20 20 20 20 19 19 19 18 18 18 17 17 17 17 16 17 20 22 24 25 25 25 25 24 22 22 22 20 19 21 22 19 19 24 26 26 29 31 31 31 29 28 29 28 26 30
33 28 29 30 31 34 34 32 26 22 25 28 25 23 24 26 25 23 21 19 17 16 16 15 14 13 13 14 15 16 17 18 18 18 18 18 18 18 19 20 20 20 20 20 20 21 20 20 20 19 19 18 17 16 17 19 20 21 22 22 23 24 24 24 24 23 21 20 22 22 19 20 25 28 30 32 33 32 30 29 28 28 24 18 18
30 29 35 39 38 36 35 28 18 18 28 31 27 26 27 27 26 24 23 21 18 17 17 16 16 15 15 16 18 19 19 19 18 18 19 18 18 18 19 19 19 19 19 20 20 21 21 21 22 22 21 20 19 18 19 19 17 17 18 18 19 20 21 23 25 25 24 23 22 23 23 24 26 29 33 34 34 33 33 32 29 27 25 20 17
29 30 34 35 33 32 28 17 13 22 31 32 29 29 29 27 26 25 23 21 20 18 18 18 17 17 18 19 20 21 21 21 20 20 20 19 17 17 19 20 19 19 19 19 20 20 21 22 23 23 22 21 20 19 20 19 17 15 16 17 18 20 20 22 25 26 27 27 25 26 28 28 27 31 37 38 36 35 33 33 31 28 27 25 24
27 29 32 31 29 26 18 12 20 29 33 32 32 32 31 29 27 25 23 22 21 21 20 19 19 19 20 20 20 22 22 23 23 21 20 18 17 17 19 21 20 19 19 18 19 19 20 21 22 22 22 21 20 20 20 19 17 17 18 19 21 22 23 24 25 25 27 27 25 27 31 32 32 36 40 41 38 36 35 35 34 32 31 30 31
21 26 30 29 24 18 13 18 27 32 32 33 34 33 32 30 28 25 24 24 24 23 21 20 20 21 21 20 21 21 22 23 23 21 18 17 17 17 18 19 20 19 18 17 19 19 19 20 20 20 20 20 19 20 20 19 17 18 19 21 23 24 24 24 25 24 25 25 25 28 31 34 37 39 41 43 43 42 41 42 41 39 37 35 33
24 27 29 26 20 17 20 26 31 32 32 33 34 33 32 31 28 27 26 26 25 24 22 22 21 21 20 21 22 22 22 22 21 18 16 16 17 18 18 18 18 17 16 17 19 18 17 18 18 19 19 20 19 20 20 19 18 18 20 21 22 23 24 25 24 24 24 24 25 27 30 33 37 40 42 44 45 46 46 45 43 40 34 29 26
34 35 33 32 30 27 27 30 31 31 32 33 33 33 32 31 30 29 28 28 26 24 24 23 21 20 19 20 21 20 19 18 16 15 14 15 16 16 15 14 14 15 16 18 18 15 14 14 15 17 19 19 19 19 19 18 17 17 18 18 19 22 26 27 27 26 25 22 22 25 29 34 38 41 44 45 45 47 45 42 41 37 28 18 15
38 37 36 39 39 33 31 32 32 32 34 35 34 34 33 33 32 31 29 28 26 24 23 22 19 17 17 18 17 15 13 13 13 13 13 13 12 11 10 10 12 14 17 16 14 12 12 13 14 15 17 18 17 17 17 16 15 15 14 15 18 23 27 28 28 29 25 20 21 26 31 36 38 40 43 45 46 47 44 42 42 35 25 17 14
37 38 38 40 39 34 31 32 33 33 35 37 36 35 34 34 33 32 30 28 25 23 21 18 14 13 14 14 12 11 10 10 11 11 11 10 9 8 8 9 12 13 14 13 13 13 13 14 13 13 14 14 14 14 13 13 13 12 11 13 18 23 25 26 26 27 25 22 24 29 33 37 38 40 45 46 47 47 43 40 40 32 25 21 19
40 41 40 40 38 34 32 34 36 36 37 38 37 36 35 34 33 32 30 28 25 19 12 8 8 10 12 11 10 9 8 9 8 8 8 9 9 8 8 9 10 12 13 13 14 15 15 13 12 10 10 11 10 11 12 12 11 10 10 13 17 20 23 24 22 22 21 22 25 29 33 37 38 41 46 48 48 47 42 38 36 29 26 24 23
40 39 37 35 33 31 30 33 35 35 37 37 35 34 34 33 31 29 27 23 15 6 3 3 8 12 12 10 8 7 7 7 7 6 7 8 9 8 8 8 10 12 13 14 15 15 14 12 10 9 8 9 10 12 12 11 9 8 10 13 15 17 19 20 20 19 19 20 23 28 33 36 38 42 47 48 48 47 44 41 34 24 27 28 25
37 35 32 30 29 28 30 33 34 34 35 34 32 30 29 27 25 23 21 16 12 10 8 10 14 14 12 9 7 6 7 7 7 6 7 7 8 8 8 9 10 12 14 15 15 14 12 11 9 8 8 9 12 13 11 8 6 7 9 12 14 16 16 16 17 18 18 19 22 27 32 34 37 41 45 49 52 52 48 45 33 19 26 31 30
34 30 28 27 26 25 25 24 23 23 23 22 22 23 22 21 21 20 18 13 11 11 13 14 14 14 12 9 6 6 7 7 7 7 7 7 7 7 8 9 10 12 13 14 13 12 10 9 8 9 9 10 11 10 6 4 4 7 10 11 14 15 15 15 16 17 18 19 21 25 30 32 35 39 43 48 54 55 52 46 30 15 22 28 31
28 27 26 24 21 19 18 16 14 15 17 17 18 19 20 20 21 20 17 11 7 10 15 15 15 15 13 9 7 6 7 7 7 7 7 6 7 7 7 9 10 10 11 11 10 9 9 10 10 9 7 5 4 2 1 1 5 8 9 11 14 16 16 16 17 17 17 19 21 24 28 31 33 36 41 47 52 53 49 43 28 11 20 21 25
20 17 13 9 9 13 18 20 21 23 24 24 24 24 23 22 20 18 14 11 10 15 16 15 16 16 12 9 7 6 7 7 7 7 6 6 7 7 8 8 9 9 9 8 8 8 8 7 5 2 0 1 2 2 2 3 6 8 8 11 14 16 17 18 18 18 18 20 22 24 27 31 32 35 40 45 49 48 45 43 33 11 16 19 19
12 13 12 8 7 12 17 20 22 24 25 25 26 26 26 23 18 14 11 10 12 14 14 14 15 14 11 8 7 7 8 8 8 7 7 6 7 8 8 8 8 8 8 6 6 5 2 1 2 3 2 2 2 2 3 3 5 7 9 12 15 16 16 18 19 18 18 20 22 24 27 30 32 34 38 41 43 45 43 41 38 23 4 14 16
9 12 14 13 15 18 21 22 22 22 21 22 24 24 21 16 12 10 10 11 11 11 11 12 13 11 9 8 8 9 9 9 8 7 7 7 8 9 8 8 7 7 6 5 3 0 4 5 4 3 3 3 3 3 4 5 6 8 11 14 16 17 16 17 17 18 18 19 22 24 26 29 31 33 36 37 38 42 44 39 37 34 20 1 7
10 14 17 19 19 21 23 23 24 24 23 22 21 18 14 11 9 9 11 11 11 11 11 11 11 10 9 8 9 10 10 9 7 7 7 8 9 8 7 6 5 5 5 3 0 3 4 4 3 2 3 4 4 5 7 8 10 11 13 15 18 18 18 18 19 20 20 20 22 25 27 29 31 32 34 36 36 39 42 38 33 33 31 21 13
13 18 20 21 21 22 23 24 26 25 23 20 17 13 11 10 10 10 11 11 12 12 10 9 8 7 7 7 8 8 8 7 7 7 8 9 8 6 3 3 4 5 5 2 2 3 2 1 2 4 6 7 8 10 12 13 14 15 16 17 19 20 21 21 22 23 23 22 23 25 27 28 30 30 32 34 35 36 38 38 33 30 31 29 24
15 19 21 20 20 23 23 23 23 22 20 17 15 12 10 10 10 12 13 12 10 8 6 5 5 5 5 5 5 5 5 6 6 7 7 7 4 2 0 2 4 4 3 1 2 2 2 3 5 7 8 10 12 13 15 16 17 18 19 18 20 21 22 22 22 23 23 23 23 25 26 26 28 29 29 30 33 34 35 36 34 30 29 28 25
18 20 22 21 22 23 22 21 21 20 18 17 16 16 15 13 12 12 11 9 7 5 4 3 3 4 4 3 3 4 4 5 5 5 4 3 3 3 2 2 3 3 2 1 0 2 3 5 7 9 9 10 11 12 14 16 17 18 19 19 20 21 21 22 22 22 23 24 24 25 26 26 26 28 28 28 30 33 34 34 33 30 29 26 23
18 20 21 21 21 21 20 21 21 20 19 19 19 19 18 16 13 10 8 7 6 5 4 3 3 3 4 4 4 4 4 4 4 3 3 4 4 3 2 1 3 3 3 3 1 4 6 8 10 11 10 10 10 11 12 14 15 16 18 18 19 20 20 20 20 20 21 23 24 25 26 27 26 27 27 27 29 30 31 32 31 30 28 26 24
18 17 18 18 19 20 20 21 22 22 21 21 20 18 17 16 14 12 10 8 7 6 5 4 4 4 3 3 4 4 4 3 2 2 2 3 3 3 4 2 3 4 3 2 4 8 9 11 12 12 11 10 10 11 12 12 14 15 16 16 17 18 19 18 19 20 21 22 23 24 25 26 27 27 27 27 26 26 27 29 30 29 27 25 23
13 11 13 16 18 19 20 20 20 21 21 21 20 18 17 17 17 17 16 13 11 9 8 7 6 5 5 6 7 6 5 3 2 1 1 2 4 4 7 5 1 2 2 4 7 9 9 10 10 10 10 10 10 11 11 12 13 14 15 15 14 16 17 18 19 21 22 22 23 24 25 26 27 27 27 26 25 26 26 27 27 27 26 24 23
8 7 9 12 15 17 18 17 17 20 21 21 21 21 20 20 20 20 19 17 16 15 12 10 9 9 9 9 8 7 6 4 3 2 1 2 1 3 7 6 3 5 7 8 9 8 8 8 7 8 9 9 10 10 11 11 12 13 14 14 14 15 16 18 19 20 21 22 23 23 24 25 26 26 25 24 24 25 25 25 25 24 24 24 23
7 6 7 10 13 14 14 13 15 18 20 22 23 23 22 21 21 20 19 19 18 17 15 13 12 12 11 10 9 7 7 6 4 2 1 1 1 4 6 5 6 7 8 8 7 7 7 6 6 6 7 9 9 10 10 10 11 11 12 13 13 14 15 16 18 19 20 22 23 23 24 24 26 26 25 24 24 24 23 24 24 23 23 23 22
7 7 7 9 10 10 10 11 12 14 17 19 20 21 21 21 20 20 19 18 18 18 18 16 15 14 12 10 8 7 7 7 5 2 1 1 1 3 5 6 6 7 7 7 6 7 7 7 7 7 7 8 8 9 9 10 9 9 11 12 12 12 13 14 16 18 20 21 22 23 24 24 25 26 25 24 25 25 25 26 25 24 24 25 24
8 8 7 7 8 8 9 10 10 12 13 15 17 18 19 20 19 20 19 18 18 19 19 18 18 16 13 10 9 8 8 9 8 6 5 5 3 2 4 6 6 6 7 7 6 6 7 8 8 7 6 6 7 8 10 10 9 9 11 12 11 10 11 13 15 17 20 21 22 23 23 23 24 25 24 24 24 25 25 26 26 26 26 26 24
10 9 8 7 7 8 9 10 11 13 14 15 17 17 18 18 18 19 19 18 17 18 19 19 18 16 12 10 9 9 9 9 9 8 8 8 5 3 5 6 6 6 7 7 6 6 6 7 7 7 6 5 6 9 10 11 9 9 10 11 10 10 11 14 16 18 20 21 22 23 24 23 23 24 24 24 24 24 24 25 25 25 25 24 24
12 10 9 9 9 9 10 11 13 15 16 17 18 18 17 17 18 19 19 19 18 18 18 19 19 16 11 9 8 8 8 9 11 11 11 9 6 5 5 6 6 5 5 6 6 5 5 6 6 6 5 6 7 9 11 10 9 10 11 11 10 11 12 14 17 18 20 21 22 22 23 23 23 24 24 24 24 24 24 24 24 25 24 23 24
13 11 11 11 11 11 12 14 16 17 17 17 18 17 17 18 19 19 19 20 20 18 18 19 18 15 11 9 9 9 10 11 12 12 11 8 6 6 6 6 6 5 4 5 5 5 5 5 5 4 4 5 7 9 10 10 10 11 11 11 11 11 12 14 16 18 19 21 21 22 23 23 23 23 24 24 24 25 24 24 24 25 25 24 24
12 12 11 11 11 12 13 14 15 16 16 16 16 17 18 19 19 19 19 20 20 20 19 18 16 13 11 10 10 10 10 10 11 11 10 8 6 5 6 6 6 5 5 4 4 4 5 5 4 3 3 4 6 9 10 10 10 11 11 10 11 12 13 14 16 17 19 20 21 21 22 23 24 24 24 24 25 25 25 25 25 26 26 25 25
10 11 10 11 11 12 13 13 13 14 14 13 12 13 15 18 19 18 19 19 20 20 20 19 17 14 11 10 11 12 11 10 10 10 9 8 6 5 5 6 5 4 4 4 4 4 4 4 3 3 3 4 6 8 11 11 10 10 10 10 10 11 13 14 15 16 18 19 20 20 21 22 24 24 24 25 25 25 25 26 26 26 26 25 25
10 10 10 10 10 11 11 11 12 12 11 9 9 8 10 13 15 15 16 17 18 19 19 19 18 15 12 12 13 13 12 11 10 9 9 9 7 5 6 7 6 5 5 4 4 3 3 3 3 3 3 4 5 8 10 10 9 9 9 10 10 11 12 14 15 16 17 18 19 19 20 21 23 24 24 24 25 25 26 26 25 26 26 26 25
10 11 10 10 10 9 9 10 10 9 8 7 7 8 9 10 12 14 15 15 16 17 18 18 17 16 14 14 15 15 13 12 10 9 9 9 8 5 6 8 8 7 6 5 4 3 3 3 2 2 2 3 5 8 10 10 9 9 9 9 9 10 11 13 14 14 15 16 17 17 18 20 21 22 23 23 24 24 25 25 25 25 26 26 25
10 10 10 10 9 9 9 10 9 7 6 6 7 10 11 11 12 14 13 12 13 15 18 19 19 18 16 15 15 15 14 12 10 8 7 9 9 6 5 8 11 9 7 5 4 4 4 3 2 1 1 2 5 8 11 11 9 8 8 8 7 8 9 10 11 12 12 13 14 15 16 18 19 19 20 21 22 23 24 25 25 25 25 25 25
9 8 8 8 8 8 9 10 9 8 8 8 8 10 10 10 11 11 11 11 12 15 18 20 20 19 17 15 15 15 14 12 10 8 5 6 9 8 6 9 13 12 9 7 6 4 4 3 2 1 0 2 4 7 11 12 10 8 8 7 6 6 7 9 9 10 10 11 11 13 14 15 16 17 18 19 20 22 23 24 24 25 25 25 25
9 9 8 8 8 9 10 11 11 11 11 10 9 9 9 9 10 10 10 11 13 15 18 19 19 18 16 15 15 16 16 13 11 8 6 7 8 8 9 12 14 12 11 10 7 5 4 4 3 2 1 1 4 7 11 13 11 9 8 7 5 4 5 7 8 8 8 8 9 10 11 13 14 15 16 17 18 20 22 23 23 24 25 25 26
5 7 9 10 11 12 12 13 13 14 14 14 13 12 11 11 11 12 12 14 16 16 17 19 19 18 17 16 15 16 17 14 11 9 9 10 10 10 12 14 14 13 12 11 8 5 5 5 4 3 1 1 3 5 10 13 12 9 8 8 5 3 4 6 7 7 7 7 8 9 9 10 12 13 15 15 15 18 21 22 22 23 25 25 26
5 4 2 4 9 13 15 16 17 17 17 16 16 16 15 14 14 15 15 17 18 17 17 17 17 16 17 17 17 17 17 14 12 12 13 14 14 14 14 13 13 13 12 10 7 5 5 5 5 4 3 2 2 4 8 12 12 11 10 9 6 2 2 3 5 6 6 8 10 10 9 9 11 13 14 14 14 16 19 21 21 22 23 25 25
5 7 7 7 4 1 5 10 14 18 20 21 19 18 17 17 17 17 18 18 19 19 18 16 14 13 13 14 16 17 16 14 14 13 13 15 17 17 14 12 11 12 12 10 7 6 7 7 6 5 4 3 2 2 5 8 10 11 11 11 8 3 2 3 3 5 6 7 10 10 9 10 12 14 15 15 15 16 18 20 20 21 23 24 24
Wind_Direction
196 196 197 198 199 200 203 205 205 205 204 203 203 202 204 210 216 219 217 218 226 238 246 246 249 257 260 262 267 269 273 275 274 271 269 268 268 271 276 277 273 268 266 264 260 259 261 259 261 265 265 265 269 267 263 268 272 269 274 281 283 286 280 269 260 277 297 305 308 311 316 318 317 318 317 314 313 311 307 304 298 291 284 280 277
195 196 196 198 201 202 203 204 204 205 205 207 207 205 208 214 219 219 218 221 232 242 247 248 253 260 264 267 270 273 276 276 275 273 270 270 269 271 275 276 275 271 266 263 262 261 260 258 259 261 259 261 264 262 260 263 267 270 271 274 280 286 283 272 266 271 291 302 306 309 313 315 314 317 317 313 311 311 307 305 304 296 286 280 276
194 194 195 198 200 201 202 203 204 205 205 207 207 208 214 218 217 218 220 226 234 241 247 250 255 262 267 270 271 274 278 281 281 277 275 275 273 272 274 275 276 274 268 266 267 266 261 257 259 261 258 258 260 260 259 260 264 268 271 273 276 282 287 280 274 272 281 294 302 306 310 313 312 314 315 312 311 310 306 304 304 300 291 282 277
193 191 193 197 199 200 201 201 203 204 206 208 209 213 218 215 211 216 222 232 241 246 250 253 259 267 270 271 273 276 282 286 286 281 278 277 275 272 272 274 276 276 273 271 270 269 264 259 260 263 262 260 259 259 258 259 263 265 268 271 272 277 287 288 283 279 279 287 296 300 306 309 309 312 313 311 310 309 306 303 302 300 295 287 279
190 188 192 196 197 198 200 201 202 203 205 209 213 218 220 212 208 216 227 241 251 254 254 254 258 261 262 266 272 275 279 282 283 281 278 277 277 275 273 273 275 276 277 275 271 267 267 267 266 267 266 265 262 260 259 260 263 265 266 268 270 273 281 287 288 286 281 281 290 298 303 306 307 311 312 311 310 310 307 304 302 301 298 293 285
188 185 188 194 197 198 198 199 199 200 203 209 217 223 222 216 217 225 235 245 250 249 248 248 248 249 252 262 270 269 271 280 287 288 285 284 284 281 277 274 274 276 278 277 273 270 270 272 273 273 272 272 270 267 265 263 263 265 265 266 268 270 276 283 287 286 282 282 288 294 300 304 306 309 313 313 310 307 306 305 304 303 302 299 293
187 184 185 192 198 199 197 196 194 197 203 208 216 223 223 225 230 235 237 236 230 227 230 234 238 242 250 263 270 267 277 292 294 290 287 286 285 282 278 275 273 276 280 279 275 272 272 274 276 277 277 279 280 278 272 267 265 265 266 267 267 267 273 281 283 284 283 284 289 291 295 301 304 306 312 315 310 305 304 303 303 305 304 302 297
188 185 184 188 194 194 193 193 194 200 206 208 215 221 224 230 237 237 228 216 211 214 223 235 241 243 249 262 272 275 283 289 283 278 282 284 282 280 278 274 272 275 279 278 274 271 272 276 278 281 283 286 289 288 281 274 270 269 270 271 268 267 274 281 280 280 281 282 287 290 292 298 303 306 311 314 311 307 306 302 298 298 300 299 296
188 185 182 181 184 187 193 198 200 204 207 210 217 222 225 233 236 230 218 213 217 224 239 255 257 256 260 265 271 275 279 280 274 275 286 287 283 281 279 276 274 274 275 275 273 272 274 278 282 284 286 291 296 297 291 283 276 274 276 276 272 271 277 281 277 277 280 281 284 288 290 295 301 305 309 311 308 305 305 302 294 291 293 294 292
186 182 173 169 178 190 200 206 205 205 208 212 218 222 225 231 231 224 221 225 233 241 255 262 261 269 274 268 268 270 272 274 274 277 285 285 281 280 279 278 276 273 274 275 274 274 275 279 283 285 286 290 294 296 296 292 284 279 280 280 278 278 280 278 276 277 279 278 281 286 289 291 297 302 304 306 306 303 302 300 295 293 292 290 290
183 178 166 169 186 196 201 203 203 209 215 216 218 221 225 230 230 227 227 231 238 247 254 255 257 268 273 269 269 269 270 272 273 276 281 280 277 276 276 277 276 273 273 274 274 276 276 278 282 283 284 287 292 298 302 300 295 289 288 286 285 284 281 277 277 278 277 275 279 283 285 286 294 300 301 303 303 301 299 297 293 290 286 282 285
182 180 172 179 192 196 194 194 201 221 224 218 216 220 224 228 229 228 229 234 243 248 248 252 259 266 268 268 270 270 269 269 270 274 277 275 274 275 274 273 272 271 271 272 274 276 276 278 281 282 282 285 291 299 304 305 304 300 295 293 291 289 286 281 278 278 277 277 279 283 284 286 293 298 299 300 301 299 297 293 287 282 277 270 269
187 180 172 179 189 187 183 189 214 225 222 217 217 220 223 225 226 227 231 238 244 246 248 254 261 264 266 267 270 273 273 271 269 271 274 274 274 273 270 269 267 268 270 273 274 276 278 280 282 281 281 283 288 296 303 307 307 301 297 297 298 299 297 291 286 284 282 281 280 282 284 286 289 293 297 298 299 297 294 290 285 279 271 265 263
177 165 164 173 180 178 181 211 224 222 220 218 217 219 221 224 225 228 234 239 241 244 249 255 258 261 263 264 268 274 276 272 270 270 270 273 274 271 270 269 266 266 271 274 278 282 285 284 283 281 280 281 285 293 301 306 305 300 298 300 302 304 303 299 295 293 289 285 280 279 283 286 288 292 298 300 297 292 289 286 283 278 271 266 264
144 147 155 164 170 178 203 220 219 220 221 219 218 219 221 223 224 228 233 237 240 244 248 252 255 257 259 258 261 268 271 270 268 266 266 268 267 267 268 267 265 267 272 280 287 291 291 288 285 282 281 283 287 292 298 302 301 299 300 301 303 304 303 302 302 301 298 294 288 285 289 294 296 297 301 303 298 293 289 285 282 277 273 268 263
144 151 156 160 172 200 219 216 215 219 219 217 216 216 218 221 224 228 233 236 239 243 247 249 252 254 255 256 258 264 268 268 264 262 265 269 269 270 270 266 263 266 275 288 296 296 294 291 289 286 284 286 289 292 296 297 295 297 299 300 303 303 303 307 310 309 307 304 300 297 302 308 310 308 307 305 300 297 292 287 281 274 267 260 255
165 168 170 173 183 204 218 217 216 217 215 212 211 213 217 222 226 229 231 234 237 241 245 246 248 253 257 260 264 267 266 262 260 265 275 281 280 278 271 260 260 270 282 292 296 295 295 294 293 291 288 287 290 294 295 292 291 296 297 300 306 307 309 315 317 316 313 308 307 314 319 321 320 317 313 309 305 301 294 284 278 269 255 245 245
174 176 180 181 189 205 220 223 223 219 215 214 215 217 220 224 228 230 230 232 237 242 245 246 248 255 263 266 265 263 258 257 266 279 287 288 282 273 262 259 269 278 283 287 288 291 295 294 294 291 287 287 291 292 291 289 291 294 297 306 312 310 312 318 318 317 315 310 317 327 328 325 322 319 316 313 311 308 297 285 280 268 244 229 236
179 183 187 188 197 212 222 227 226 219 215 217 220 222 224 227 229 229 229 233 238 241 242 242 246 255 262 260 254 251 258 270 280 283 282 277 267 260 260 269 275 276 279 283 287 294 299 299 297 291 285 288 291 289 289 289 289 289 298 312 312 308 312 316 315 315 313 311 321 327 326 324 323 322 321 319 317 313 303 292 286 268 235 220 225
187 190 191 195 206 217 223 227 225 218 217 221 222 223 225 227 227 226 228 231 234 236 236 238 247 251 248 245 249 262 278 287 283 272 265 258 254 256 262 266 271 275 280 287 294 302 306 306 303 296 292 295 295 294 296 291 282 284 302 315 312 310 314 315 312 312 310 308 317 323 322 323 326 327 328 325 322 318 311 306 297 268 228 211 214
193 194 197 204 213 219 223 225 224 220 220 222 222 223 225 224 223 223 223 221 213 191 164 243 257 253 245 245 260 278 285 283 274 262 257 255 255 260 264 268 276 282 288 294 300 306 309 308 305 302 301 300 298 301 300 285 272 285 310 320 318 316 317 315 312 312 308 307 318 324 323 325 328 331 331 329 326 324 319 318 311 271 222 207 206
198 202 206 211 217 222 227 230 228 226 226 225 222 220 219 219 219 215 207 192 163 149 183 237 250 246 244 251 261 267 268 269 267 263 259 258 259 262 265 273 282 286 291 298 302 305 308 307 305 306 304 298 295 298 291 268 264 301 320 326 328 325 323 320 317 316 313 316 325 326 324 326 329 332 333 332 332 331 328 326 320 275 222 212 209
206 211 214 219 224 229 232 234 233 232 233 231 223 217 215 211 203 193 183 166 151 172 209 239 244 237 240 246 241 245 255 258 262 266 264 261 261 262 268 280 287 288 293 299 301 303 304 302 303 304 301 297 294 291 272 248 290 325 326 329 336 336 334 333 330 325 324 329 332 326 324 327 330 332 334 335 335 334 333 333 328 273 225 218 215
213 220 225 229 230 227 223 225 234 240 240 236 230 226 219 203 186 178 175 168 175 214 234 243 237 231 234 228 210 222 246 255 260 263 263 263 264 268 277 286 287 289 294 297 298 301 301 300 302 302 300 303 308 307 239 305 336 338 333 337 346 350 351 348 343 338 338 340 336 327 324 328 330 331 334 336 337 335 336 343 343 276 228 222 217
217 221 220 216 213 218 222 225 231 235 235 232 227 216 201 186 175 175 184 196 222 238 242 236 228 226 225 214 201 216 241 252 258 264 267 269 272 280 286 286 285 289 293 294 297 303 305 303 299 290 17 48 63 72 38 360 351 347 346 353 358 360 1 357 352 351 350 345 337 329 327 330 332 335 338 340 339 338 342 352 358 327 231 225 221
180 165 151 156 199 231 236 231 228 230 231 227 216 200 185 179 177 180 194 216 230 234 231 224 221 222 222 217 210 220 238 250 257 264 270 272 281 290 289 286 286 287 287 291 299 305 319 78 111 117 83 33 47 67 36 15 4 359 3 8 9 8 8 3 359 357 353 345 339 333 329 332 337 343 346 344 341 342 347 355 3 4 282 222 224
142 159 168 191 214 224 223 216 209 207 205 199 190 181 176 177 182 188 204 216 218 219 219 216 213 213 220 227 222 223 235 244 249 259 270 282 292 294 288 288 293 288 284 289 295 271 114 107 100 84 42 35 64 70 41 23 12 12 16 16 13 13 11 8 5 2 355 347 341 336 335 340 345 348 348 346 343 348 353 356 3 12 21 76 214
194 206 201 202 204 201 195 187 177 173 172 171 170 171 175 185 193 197 202 205 204 202 200 198 200 208 223 230 224 224 234 241 248 264 283 295 298 292 284 292 306 312 315 317 68 119 111 109 100 67 37 37 53 49 35 27 22 21 21 17 12 13 13 12 11 9 2 354 347 343 344 348 350 349 348 348 347 350 355 358 1 11 24 38 40
208 218 217 211 201 187 178 173 168 167 167 168 170 175 184 194 194 188 185 188 190 191 189 189 199 215 227 230 228 231 239 248 259 277 292 296 291 278 275 311 333 342 349 11 102 110 93 81 67 50 35 31 37 36 29 24 21 21 21 16 11 11 13 13 12 9 5 360 354 351 351 351 351 350 350 350 348 349 356 1 2 6 19 31 32
196 207 210 202 187 175 171 171 172 173 174 175 174 171 169 172 175 173 171 173 177 182 188 198 216 230 235 237 239 240 246 257 269 282 288 283 265 230 162 10 357 351 357 54 103 77 59 62 57 53 48 43 41 36 28 22 17 13 14 14 11 9 10 12 13 10 6 3 359 357 356 354 352 352 352 349 348 351 358 4 3 5 14 23 26
188 196 198 190 184 181 180 180 181 181 181 181 177 166 154 150 156 163 165 165 171 185 198 204 220 232 229 229 239 245 251 261 268 271 264 231 192 161 107 32 2 352 330 254 160 60 68 73 65 58 54 50 45 38 29 24 18 12 9 9 9 9 8 10 12 12 8 5 3 2 0 357 354 354 354 352 351 354 359 3 5 5 9 14 20
199 202 200 195 194 193 190 186 185 183 180 177 173 167 159 152 148 151 159 166 172 179 184 186 192 203 213 224 233 236 234 232 236 238 218 194 187 170 143 10 348 341 296 266 216 82 79 80 75 64 56 51 45 37 30 25 22 17 12 9 8 8 8 9 12 13 11 8 5 4 3 360 357 357 358 358 358 358 359 1 4 6 6 8 13
209 206 205 202 198 195 192 187 185 184 183 180 179 177 174 169 161 155 156 161 163 163 163 165 169 177 187 192 183 179 182 186 195 216 210 216 232 217 196 219 331 341 293 232 123 95 83 78 74 64 55 48 40 35 33 30 25 22 18 13 10 8 8 11 14 15 14 11 8 6 4 2 1 1 1 2 2 2 1 2 3 4 4 4 6
204 201 205 205 199 193 190 189 191 194 193 189 188 187 186 184 177 169 162 158 157 159 159 157 157 158 155 153 150 148 147 143 121 78 283 287 288 235 200 201 283 20 83 114 104 92 78 70 65 59 54 51 44 39 38 34 29 24 18 14 11 9 9 13 15 15 14 12 10 7 6 6 5 4 2 2 4 5 5 5 4 3 2 2 2
192 189 197 203 202 199 197 200 206 206 202 198 195 192 190 187 183 177 173 169 167 166 164 159 158 157 153 151 148 144 143 139 116 77 28 354 328 196 187 183 146 103 99 94 89 84 74 67 64 59 56 53 48 44 40 34 30 24 16 10 7 5 8 12 14 14 13 12 11 9 7 7 8 7 4 4 6 6 5 4 4 4 4 2 2
209 209 204 205 204 201 202 208 210 208 206 204 200 196 193 189 184 182 182 179 175 171 168 163 160 161 161 160 158 156 159 157 137 98 57 48 139 192 194 176 139 118 106 97 94 88 76 69 68 68 62 54 48 44 39 34 29 21 12 6 1 2 7 12 13 14 15 14 13 12 10 9 9 9 8 7 7 7 6 5 5 7 7 7 8
216 224 216 208 203 200 207 216 217 215 211 204 197 193 191 189 186 185 183 180 176 174 172 169 167 168 170 176 185 192 191 188 188 205 221 173 159 205 199 171 138 119 114 116 111 92 78 75 75 73 66 55 46 39 32 28 24 13 6 5 4 5 11 15 17 19 19 17 15 15 13 11 10 10 10 8 7 6 7 7 7 8 9 13 16
220 226 221 215 210 208 212 218 216 208 200 193 190 188 186 184 186 187 184 179 177 177 175 173 174 175 179 190 207 223 228 225 225 221 196 176 167 169 170 157 136 116 115 122 116 92 81 79 73 69 65 53 39 30 21 18 17 12 9 12 14 14 18 22 24 25 24 21 19 17 16 14 13 12 12 10 7 6 7 7 9 9 9 12 15
211 213 210 206 206 207 208 208 202 193 185 180 178 177 175 178 185 188 183 177 175 177 178 175 177 183 192 205 223 239 243 233 220 195 173 167 167 167 166 160 141 120 115 120 116 103 94 84 73 66 60 44 29 21 15 13 16 20 21 23 24 26 29 29 28 28 26 23 21 19 19 18 15 14 14 13 10 8 7 8 10 11 10 9 10
199 199 198 197 199 203 202 199 195 191 186 181 178 176 179 185 189 187 180 175 175 178 179 178 181 190 203 214 222 224 213 198 187 178 173 170 172 183 188 177 159 140 128 122 119 118 112 95 77 64 53 41 28 18 16 19 25 28 30 35 39 39 38 35 32 30 28 25 22 21 21 20 17 16 16 16 13 12 11 10 11 13 13 11 11
192 189 190 193 198 201 199 197 196 195 192 190 190 189 188 186 183 178 174 173 175 179 180 183 187 193 198 201 201 195 187 181 180 182 181 176 177 189 195 190 185 180 161 139 126 125 124 109 84 64 56 48 32 20 20 27 31 31 36 47 53 50 44 39 36 34 31 28 25 22 22 21 20 17 17 17 18 18 17 16 15 15 16 16 15
184 181 184 189 194 196 196 195 196 197 197 197 196 194 189 185 181 177 172 171 175 178 180 183 187 185 183 190 196 195 190 184 180 182 182 178 178 184 184 189 200 204 187 164 144 132 133 127 105 81 68 56 34 22 24 29 31 33 41 53 58 54 47 42 38 36 34 31 27 24 23 24 23 21 20 22 23 21 20 20 19 18 18 18 18
176 177 182 186 189 191 192 192 191 192 194 191 187 189 193 190 184 179 174 172 175 179 179 180 181 180 178 189 199 200 196 188 181 183 186 187 193 197 184 180 184 180 169 166 160 149 147 142 126 101 76 57 35 22 22 27 30 34 43 53 60 57 49 43 41 38 35 33 30 26 25 26 25 23 23 26 27 26 24 22 21 20 20 20 21
174 175 176 178 180 182 184 187 187 185 179 168 159 169 186 188 183 181 180 178 180 184 185 184 183 180 181 190 197 199 199 200 200 197 193 192 199 211 208 195 177 155 153 163 170 175 177 165 144 124 86 56 33 21 21 25 29 34 41 50 60 61 52 45 41 37 34 33 31 29 27 27 26 24 24 27 29 29 27 24 22 22 22 22 22
171 171 168 167 171 177 179 181 182 181 181 183 184 188 196 198 193 193 192 187 185 189 193 192 189 187 189 192 193 193 198 205 211 214 211 205 202 210 220 213 198 178 168 172 178 189 198 188 167 144 93 52 31 25 26 26 26 31 38 44 53 58 53 45 41 37 34 33 34 33 31 28 27 26 26 29 32 32 30 28 26 24 24 24 23
170 171 171 171 173 178 181 182 185 189 197 204 199 195 199 202 199 198 199 196 191 193 196 197 196 197 194 190 189 194 200 206 212 221 226 216 207 211 228 216 202 192 186 186 190 200 200 193 190 181 94 47 30 28 29 27 26 30 33 37 48 57 54 47 43 40 37 35 36 37 34 30 30 30 30 32 35 35 34 32 31 29 28 27 26
178 179 184 188 188 186 185 187 191 197 202 206 205 202 206 211 210 209 210 206 196 194 196 197 199 200 198 192 192 197 201 205 210 219 225 211 206 212 216 199 191 189 191 191 191 194 193 193 204 209 124 40 26 27 29 28 31 34 32 33 45 59 59 53 47 44 41 37 36 37 35 33 34 35 35 36 38 37 36 35 34 32 32 32 31
195 201 203 201 198 197 198 199 203 207 209 212 212 212 216 222 227 228 223 211 202 199 196 196 199 204 204 201 199 200 201 205 212 217 213 199 193 194 192 187 186 189 191 188 185 185 189 195 202 195 168 23 19 27 27 26 29 34 35 33 40 59 66 60 52 49 49 42 33 33 37 37 38 39 39 39 40 40 39 39 37 35 35 35 35
186 207 214 216 214 213 212 208 210 214 217 218 219 221 221 222 227 231 228 219 214 210 202 197 201 207 210 209 208 206 205 207 212 216 217 214 203 192 187 189 192 194 192 187 183 186 194 198 203 208 224 328 8 21 21 20 22 26 28 28 33 55 75 65 55 54 56 46 36 37 43 42 42 42 42 42 44 44 45 45 43 40 39 38 37
92 99 140 208 222 225 224 221 220 222 223 222 222 223 222 220 221 225 227 226 225 221 211 202 200 203 209 214 216 212 210 211 215 220 225 223 213 198 189 189 193 196 195 190 187 190 198 204 211 221 237 277 327 5 16 20 23 24 22 21 24 43 98 82 63 60 59 49 44 48 54 52 47 46 45 45 48 50 50 50 48 45 43 41 40
95 83 80 80 85 147 223 229 232 233 232 229 224 221 219 221 224 228 231 231 229 225 220 214 210 210 215 219 218 215 215 218 217 215 214 210 202 195 193 194 196 197 197 195 191 194 202 208 214 219 225 236 254 330 12 20 24 25 23 20 19 28 129 124 79 67 66 56 48 54 66 66 57 53 52 52 52 54 55 55 53 51 48 47 47
Height
784 787 790 793 795 797 799 801 803 806 807 809 810 810 811 812 813 815 816 817 818 818 819 819 819 819 819 819 818 818 818 817 817 817 818 818 818 818 818 817 816 815 815 814 814 814 814 813 813 813 813 813 812 812 812 811 811 810 809 808 808 808 807 806 804 798 795 795 793 791 789 787 784 782 779 774 771 770 767 765 763 761 759 756 755
781 784 787 790 792 794 797 799 802 804 806 807 808 809 810 810 811 813 814 815 816 817 817 817 817 817 817 817 816 816 816 815 815 815 816 816 816 816 815 815 814 813 813 812 812 812 811 811 811 811 811 810 810 810 809 809 809 808 807 807 806 805 805 804 802 798 793 791 791 789 787 786 782 779 777 773 769 766 763 760 758 756 755 753 751
777 780 784 786 789 792 795 797 800 802 804 805 807 808 808 809 809 810 811 813 814 815 816 815 815 815 815 815 814 814 814 813 813 813 814 814 814 814 813 812 812 811 810 810 810 809 809 808 808 808 808 808 807 807 807 806 806 806 805 805 804 803 802 801 799 797 793 789 789 787 784 783 780 776 774 771 767 764 761 757 755 752 750 749 747
774 777 781 784 787 790 792 794 797 799 802 804 805 807 807 807 807 808 809 810 812 813 814 813 813 813 813 813 812 812 812 812 811 811 812 812 812 811 811 810 809 809 808 807 807 807 806 806 806 806 806 805 805 804 804 804 803 803 802 801 801 800 799 798 796 795 792 788 786 785 782 780 777 774 771 767 764 762 758 755 752 749 746 745 743
771 775 780 784 785 786 788 791 794 797 800 803 806 807 808 807 806 806 807 808 809 810 811 811 811 811 811 811 811 811 811 810 809 809 809 810 810 809 809 808 808 807 806 805 804 804 804 803 803 803 803 803 802 802 801 801 800 799 798 798 797 796 795 795 793 792 790 787 784 782 780 777 774 771 768 764 761 758 755 752 749 746 742 740 738
769 772 778 783 785 784 785 788 792 796 800 804 807 808 808 807 806 805 805 805 806 807 808 809 809 810 810 809 809 809 809 809 808 807 808 808 808 808 807 806 806 805 804 803 802 802 801 801 801 801 801 800 800 799 798 798 797 796 795 794 793 793 792 791 790 789 787 785 782 779 777 774 770 767 765 763 759 755 751 747 744 743 740 737 734
766 769 772 777 781 783 785 788 792 795 798 800 802 804 805 806 805 804 804 803 804 805 806 807 807 807 807 807 807 807 807 807 806 805 806 806 806 806 805 805 804 803 802 801 800 799 799 799 798 798 798 797 797 796 795 794 794 793 791 791 790 789 789 788 787 786 784 782 780 776 774 771 768 764 761 759 757 753 750 746 740 738 736 734 732
762 765 767 770 777 784 789 791 791 792 793 795 797 799 801 803 803 803 802 801 802 803 804 805 805 805 805 805 805 805 805 805 804 804 804 804 804 804 803 803 802 801 800 799 798 797 797 797 796 796 796 795 794 793 792 791 791 790 789 788 787 786 786 785 784 783 781 779 777 774 771 768 765 761 758 756 753 750 748 746 740 736 733 730 728
760 763 766 772 782 790 794 793 790 789 791 793 796 797 798 800 801 801 800 800 800 801 802 802 802 802 802 802 803 804 803 803 802 802 802 802 802 801 801 801 800 799 798 796 796 795 795 794 794 793 793 792 792 791 789 789 788 787 786 785 785 784 782 782 781 780 778 776 774 771 768 765 762 759 755 753 750 747 745 743 739 735 732 727 723
760 764 769 778 786 790 791 791 789 788 790 792 793 794 796 798 799 799 798 798 798 799 799 800 800 800 800 800 801 802 801 800 799 799 799 799 799 799 799 798 797 797 795 794 793 792 792 792 791 791 791 790 789 788 787 786 785 784 784 783 782 781 780 779 778 776 775 773 771 768 766 762 759 757 753 750 747 744 742 739 735 731 729 725 718
760 765 770 776 781 781 783 786 788 789 789 789 790 792 794 795 796 796 795 795 796 796 797 798 797 797 798 798 799 799 798 798 797 796 796 796 796 796 796 796 795 794 793 792 791 790 789 789 788 788 788 787 787 786 784 783 782 782 781 780 779 779 777 776 774 773 772 770 767 765 763 759 756 754 751 747 743 741 738 736 733 729 726 723 717
763 766 765 769 774 776 779 783 787 789 788 787 788 789 791 792 793 793 792 792 794 794 795 795 795 795 795 796 796 796 796 795 794 794 794 793 794 794 793 793 792 791 790 789 788 787 786 786 785 785 785 784 784 783 782 781 780 779 778 777 776 775 774 773 771 769 768 766 764 762 759 756 753 751 747 743 739 736 734 731 729 726 722 719 715
763 764 765 771 776 777 779 782 785 785 784 784 785 786 788 789 789 789 789 790 791 791 792 793 793 793 793 794 794 794 793 793 792 792 791 791 791 791 790 790 789 788 788 786 785 784 783 783 782 782 782 782 781 780 779 778 777 776 775 774 773 772 771 770 768 767 765 763 761 759 756 754 751 748 744 740 736 732 728 725 723 720 717 713 710
758 761 766 774 778 777 778 780 781 781 781 782 782 783 784 785 785 786 787 787 788 789 790 790 791 791 791 792 792 791 790 790 789 789 789 789 789 789 788 787 786 786 785 784 783 782 781 780 779 778 778 778 778 778 777 775 774 773 772 771 770 769 767 766 764 763 762 761 759 756 753 751 748 744 739 736 733 728 723 719 716 713 709 707 705
761 763 766 771 775 775 776 777 777 777 778 778 778 779 781 781 782 783 783 784 785 786 787 788 788 788 789 789 789 788 787 787 787 787 787 787 787 786 786 785 784 783 782 781 780 779 778 777 776 775 775 775 775 775 774 773 772 770 769 768 767 765 764 762 761 760 758 757 755 752 749 747 743 739 735 731 726 722 718 713 708 705 702 700 698
761 763 765 768 771 772 773 773 772 772 773 774 774 776 776 777 778 779 780 781 782 783 784 784 784 785 785 785 785 785 785 785 785 785 785 785 785 784 783 782 781 781 780 779 778 776 775 774 774 773 773 773 773 772 772 770 769 768 766 765 764 762 760 759 757 756 754 752 751 748 745 742 738 733 729 724 719 715 710 704 700 698 695 692 690
752 754 755 757 760 762 765 767 767 767 769 769 770 771 772 773 774 775 777 778 779 779 780 781 782 783 783 782 782 782 782 782 783 783 783 782 782 781 780 779 779 778 777 776 775 774 773 772 772 771 771 770 770 769 769 768 766 765 764 762 761 759 756 755 753 751 750 748 746 744 741 737 733 727 723 718 712 708 702 695 691 689 686 683 681
745 747 748 748 750 753 757 761 762 762 764 765 766 766 768 769 770 771 773 774 775 776 777 778 780 780 780 780 779 779 780 780 781 781 780 780 779 778 778 777 776 776 774 773 773 772 771 770 770 769 768 768 767 767 766 765 764 763 761 760 758 756 753 752 749 746 745 744 742 740 736 732 727 722 717 711 705 700 694 687 681 678 675 674 673
741 743 745 746 749 750 753 757 758 758 759 760 761 763 764 765 766 768 770 771 772 774 775 776 778 778 778 778 777 778 778 779 779 778 777 777 776 776 775 775 774 773 772 771 771 770 769 768 767 767 766 765 765 764 763 762 761 760 759 758 756 754 751 749 746 743 741 739 737 735 731 726 722 716 711 704 697 691 685 678 671 667 665 665 666
737 739 742 744 747 748 750 754 754 754 756 757 758 760 760 761 763 765 766 768 770 772 774 776 777 777 777 776 776 776 776 776 776 776 775 775 774 773 773 772 771 771 770 769 769 768 767 766 765 765 764 763 763 762 761 760 758 758 757 756 755 752 749 747 744 742 740 737 734 731 727 722 717 711 704 696 689 682 675 668 662 657 655 656 659
734 737 740 743 746 747 750 753 753 753 754 755 756 758 758 759 761 762 764 766 768 771 774 777 778 777 776 775 775 775 774 773 773 773 773 773 772 771 771 770 770 769 768 768 767 766 765 764 763 762 762 761 761 760 758 757 756 756 756 755 753 750 747 744 742 740 738 735 732 728 724 718 712 706 699 690 682 674 666 659 653 649 648 649 651
734 737 740 742 745 748 751 753 754 754 755 755 755 756 756 757 759 761 763 764 765 768 771 774 776 776 775 774 773 773 772 772 771 771 771 771 770 770 769 769 768 768 767 766 765 764 763 762 761 760 760 759 758 757 756 756 755 755 754 753 751 748 745 743 740 738 736 733 729 726 721 716 709 702 694 686 676 667 659 652 645 643 643 644 646
734 737 740 743 746 750 753 755 756 756 757 758 758 757 757 757 757 759 761 762 763 766 769 771 773 773 773 772 772 771 770 770 769 769 769 769 768 768 767 767 767 766 765 764 763 762 761 760 759 758 758 757 756 755 755 754 754 754 753 751 749 746 743 741 739 736 734 731 728 724 720 714 708 701 693 684 674 665 657 648 641 639 640 641 643
736 739 742 745 748 751 752 753 754 755 756 758 759 760 760 758 756 757 759 760 762 765 766 769 770 770 770 770 770 769 769 768 768 768 767 767 767 766 766 766 765 765 764 762 761 760 759 758 757 756 756 755 755 754 754 754 754 753 752 750 747 744 742 740 737 735 732 729 727 723 719 714 709 702 695 687 677 668 659 649 640 637 639 640 642
739 742 745 748 750 751 750 748 749 750 751 753 754 755 758 757 755 755 756 757 760 762 764 766 767 767 768 768 768 768 767 767 767 766 766 766 765 765 765 765 764 763 762 761 760 759 757 757 756 755 754 754 754 754 754 754 753 752 751 748 745 743 741 739 736 734 731 729 726 723 719 714 709 704 697 690 681 671 662 652 643 639 639 641 642
740 742 744 745 748 749 748 746 747 747 748 750 751 752 754 754 754 754 755 757 759 761 762 764 764 765 765 765 766 766 766 765 765 765 764 765 764 764 764 764 763 762 761 760 759 758 757 756 755 754 754 754 754 754 754 753 752 751 749 747 745 742 740 738 736 733 731 728 726 723 719 714 709 704 699 693 685 675 665 657 649 643 640 641 643
743 742 740 740 742 743 744 744 745 746 748 749 751 752 752 752 752 753 754 756 758 759 760 761 762 763 763 764 764 764 764 764 764 763 764 764 764 764 763 763 762 761 760 759 758 757 756 756 755 754 754 754 754 754 753 753 751 750 748 746 744 742 741 738 736 733 731 728 725 722 718 713 709 704 699 694 687 678 670 662 656 649 644 643 646
740 739 738 738 738 740 742 743 744 745 748 749 749 750 750 750 751 751 753 755 756 758 759 759 760 761 761 762 762 762 762 762 762 763 763 763 763 763 762 762 761 760 759 759 758 757 756 756 755 754 753 753 753 753 752 752 751 749 748 746 744 742 740 737 735 732 730 728 725 722 717 713 708 705 700 694 688 681 675 668 663 657 652 648 649
737 738 739 738 738 739 741 742 742 744 745 746 747 747 748 748 749 750 752 754 755 757 757 757 758 759 759 760 760 760 761 761 762 762 763 762 762 762 761 761 761 760 759 759 758 757 756 756 755 754 753 752 752 751 751 751 750 749 747 745 743 741 739 736 734 731 729 727 725 721 717 713 709 705 701 696 690 684 679 673 667 663 657 653 652
737 740 741 740 739 739 740 741 741 742 743 744 745 745 746 747 749 750 752 754 754 755 755 756 756 757 757 758 759 759 760 761 761 762 762 761 761 761 761 761 760 760 760 759 758 757 756 755 755 754 753 753 752 751 751 751 750 748 747 745 743 741 738 736 734 731 729 727 725 722 718 714 711 706 702 698 693 686 681 676 671 667 662 658 656
737 739 739 739 739 739 739 739 740 741 741 742 743 744 745 748 750 751 752 752 753 753 754 755 755 756 757 758 758 759 760 760 761 761 761 761 761 761 760 760 760 760 760 759 758 757 756 755 755 755 754 754 753 752 752 751 750 749 747 745 744 741 739 737 734 732 730 728 725 722 719 715 712 708 704 700 695 689 684 680 676 671 667 664 662
736 736 737 737 737 737 737 737 738 739 740 741 742 743 745 747 748 749 750 751 752 753 754 754 755 755 756 757 758 759 760 760 760 760 760 760 760 760 760 759 759 760 760 759 758 757 756 755 755 755 755 755 754 753 752 751 750 749 748 746 744 742 740 738 736 733 731 728 726 723 720 717 714 710 706 702 698 693 688 684 680 676 672 669 666
734 735 736 736 736 736 736 736 737 737 738 739 741 742 742 744 746 748 750 751 752 753 754 754 755 756 756 757 758 759 759 759 760 760 760 760 760 760 759 759 759 759 759 758 758 757 757 756 755 755 755 755 755 754 753 751 750 749 748 747 745 743 741 739 736 734 732 730 727 725 722 718 715 711 707 705 701 698 694 689 684 681 677 674 671
733 734 735 735 735 735 735 736 736 737 738 739 740 740 741 743 745 747 749 751 752 753 754 755 756 756 757 758 758 759 759 760 760 760 760 759 759 759 759 759 759 759 759 758 758 758 757 757 756 756 756 755 755 754 753 751 750 749 748 747 745 743 741 739 736 734 732 730 728 725 723 720 716 712 709 706 703 701 697 693 690 686 682 679 675
732 733 734 734 735 735 735 736 736 737 737 738 739 740 741 743 744 746 747 749 751 752 754 755 756 757 758 758 759 759 760 760 760 760 760 759 759 759 759 759 759 759 759 758 758 758 758 758 757 757 756 755 755 754 753 751 750 749 747 746 745 743 741 739 737 735 733 731 728 726 724 721 718 715 712 709 706 703 700 698 695 691 687 683 679
730 732 733 734 734 734 735 735 736 736 737 737 738 740 741 742 744 745 747 748 749 751 752 754 755 757 758 758 759 760 760 760 761 760 760 759 759 759 759 759 759 759 759 759 759 758 758 758 757 757 757 756 755 754 753 751 750 748 747 746 744 743 741 739 737 735 733 731 729 727 724 722 719 716 713 710 708 706 703 701 698 695 692 688 684
730 731 732 733 733 734 734 735 736 737 737 737 738 739 740 742 743 745 746 748 748 750 751 753 754 756 757 758 759 760 760 760 760 760 760 759 759 759 759 759 759 759 759 758 758 758 758 758 757 757 757 756 755 754 752 751 750 749 747 746 745 743 742 740 738 736 734 732 730 728 725 723 720 717 715 712 709 707 704 702 699 696 694 691 687
729 730 731 732 733 733 734 735 736 736 737 738 738 739 740 741 743 744 745 746 747 749 750 752 753 755 756 757 758 759 759 760 760 759 759 759 759 759 759 760 760 759 759 758 758 758 758 758 757 757 756 756 754 754 753 751 750 749 748 746 745 743 742 741 739 737 735 733 731 729 727 724 722 719 717 714 711 708 706 704 701 698 695 692 689
728 729 731 732 732 733 734 735 736 736 737 738 738 739 740 742 742 743 744 745 747 748 750 751 753 754 755 757 758 758 758 758 758 758 759 759 758 759 759 759 760 759 759 758 758 758 758 758 757 757 756 756 755 754 753 752 750 749 748 746 745 744 742 741 739 737 736 734 732 730 728 726 724 722 719 716 714 711 708 706 703 700 698 695 693
727 729 731 731 732 733 734 734 736 736 736 737 738 739 740 741 741 742 743 745 747 748 749 751 752 753 755 756 757 757 757 757 757 757 757 758 758 758 758 759 759 759 759 758 758 758 757 757 757 757 756 756 755 754 753 752 751 750 748 747 745 744 743 742 740 738 737 735 733 731 729 727 725 723 721 718 716 713 710 708 705 703 701 698 696
727 729 730 731 732 733 733 734 735 736 736 737 738 738 739 740 740 741 743 744 746 748 749 751 752 753 755 756 756 757 757 756 756 757 757 756 756 757 757 758 759 759 759 758 758 757 757 757 757 757 756 756 756 755 754 752 751 750 749 747 746 745 744 743 741 739 738 736 734 732 730 728 727 725 723 721 718 716 713 710 707 705 703 701 698
728 729 729 730 732 732 733 734 735 735 736 737 737 738 739 739 740 741 742 743 745 747 748 751 752 753 754 755 756 756 756 755 756 756 756 756 756 756 756 757 758 758 758 758 758 757 757 757 757 757 756 756 756 755 754 753 752 750 750 748 747 746 745 743 742 740 739 737 735 733 731 730 728 726 725 723 720 718 715 712 710 707 705 703 701
728 729 729 731 732 732 733 734 735 735 737 737 737 738 739 739 739 740 741 743 744 746 747 750 752 753 754 754 755 755 755 755 755 756 755 755 755 755 756 757 758 758 758 758 757 757 757 757 757 757 756 756 756 755 754 753 752 751 750 749 748 747 745 744 743 742 740 739 737 735 733 731 729 727 726 724 722 720 718 715 712 710 708 705 703
728 729 730 731 732 733 734 734 735 736 736 736 737 739 740 740 740 741 742 743 745 745 747 748 750 751 753 753 753 754 754 754 755 755 755 754 755 755 756 757 758 758 758 758 758 758 757 757 757 757 756 756 756 756 755 754 752 751 751 750 749 748 746 745 744 743 741 740 739 737 734 732 730 729 727 725 724 722 720 718 716 713 711 708 706
729 730 731 732 733 734 734 735 735 735 736 736 737 739 740 741 741 742 743 744 744 745 747 748 749 750 751 751 752 753 753 753 754 754 754 754 754 755 756 757 757 758 758 758 758 758 757 757 757 757 757 757 757 756 755 754 753 752 751 750 749 748 747 746 745 744 743 742 740 738 736 734 732 730 728 727 725 724 722 721 719 716 714 712 709
729 731 731 732 733 734 734 735 735 735 736 736 737 738 739 740 740 741 742 743 743 744 745 746 747 748 749 750 751 752 752 753 753 753 752 753 753 754 755 756 757 758 758 758 758 758 757 757 757 757 757 757 757 756 756 754 753 752 751 750 750 749 748 748 747 746 744 743 741 740 738 736 734 732 730 728 727 725 724 722 721 719 717 715 713
730 730 731 732 732 733 734 734 735 735 735 736 736 736 737 738 739 739 740 741 741 742 743 744 745 747 748 749 750 750 751 751 752 751 752 752 752 753 755 755 756 757 757 757 758 758 757 757 757 757 757 757 757 756 756 755 753 753 752 751 750 750 749 749 748 747 746 744 743 741 740 738 736 734 732 730 728 727 725 724 723 721 720 718 716
730 730 731 731 732 732 733 733 734 735 735 735 735 736 736 737 738 738 739 740 741 741 742 743 745 746 746 747 748 748 749 750 750 750 751 752 752 753 754 754 755 756 757 757 757 757 757 757 757 757 757 758 757 756 756 755 754 753 752 751 751 750 750 749 749 748 746 745 744 742 741 739 738 736 734 732 731 729 727 726 724 723 722 720 719
729 730 730 731 731 731 732 732 733 734 734 734 734 735 735 736 736 737 738 739 739 740 741 742 743 744 745 746 746 747 748 748 748 749 750 751 752 753 753 754 755 756 756 756 757 757 757 757 757 757 758 758 757 757 756 755 754 753 753 752 751 751 750 750 749 748 747 746 745 743 742 741 739 737 736 734 733 732 730 728 727 725 724 722 721
730 730 730 730 731 731 731 731 732 732 732 732 732 733 733 734 735 735 736 737 737 738 739 740 741 742 743 744 745 746 746 746 747 747 748 750 751 752 753 754 754 755 755 756 757 756 756 757 757 757 758 758 757 757 756 755 755 754 753 752 751 751 750 750 749 748 748 747 745 744 743 742 740 739 737 736 735 734 732 731 729 728 726 725 723
729 729 730 730 730 730 731 731 731 731 731 731 730 730 731 731 732 733 733 734 735 736 738 738 739 740 741 742 743 744 745 745 746 746 747 748 750 751 752 753 754 754 755 756 756 756 756 756 757 757 757 757 757 757 757 756 755 754 753 752 751 751 750 750 749 749 748 747 746 745 744 743 742 741 739 738 737 736 734 733 732 730 729 727 726